Time,TemperatureF,DewpointF,PressureIn,WindDirection,WindDirectionDegrees,WindSpeedMPH,WindSpeedGustMPH,Humidity,HourlyPrecipIn,Conditions,Clouds,dailyrainin,SoftwareType,DateUTC
2013-06-17 00:02:00,73.0,70.0,29.95,SE,130,0.0,-999.0,89,-99.99,,,0.00,,2013-06-17 05:02:00,
2013-06-17 00:12:00,73.0,70.0,29.96,SSE,149,0.0,-999.0,89,-99.99,,,0.00,,2013-06-17 05:12:00,
2013-06-17 00:22:00,73.0,70.0,29.96,SSE,163,0.0,-999.0,89,-99.99,,,0.00,,2013-06-17 05:22:00,
2013-06-17 00:33:00,73.0,70.0,29.96,SSE,163,0.0,-999.0,89,-99.99,,,0.00,,2013-06-17 05:33:00,
2013-06-17 00:44:00,73.0,70.0,29.96,SE,141,0.0,-999.0,89,-99.99,,,0.00,,2013-06-17 05:44:00,
2013-06-17 00:53:00,73.0,69.0,29.95,ESE,123,0.0,-999.0,88,-99.99,,,0.00,,2013-06-17 05:53:00,
2013-06-17 01:02:00,73.0,69.0,29.95,SSE,153,0.0,-999.0,88,-99.99,,,0.00,,2013-06-17 06:02:00,
2013-06-17 01:12:00,73.0,70.0,29.95,SSE,150,0.0,-999.0,89,-99.99,,,0.00,,2013-06-17 06:12:00,
2013-06-17 01:22:00,73.0,70.0,29.95,SE,129,0.0,-999.0,89,-99.99,,,0.00,,2013-06-17 06:22:00,
2013-06-17 01:33:00,73.0,70.0,29.95,SE,132,0.0,-999.0,89,-99.99,,,0.00,,2013-06-17 06:33:00,
2013-06-17 01:43:00,73.0,70.0,29.95,SE,134,0.0,-999.0,89,-99.99,,,0.00,,2013-06-17 06:43:00,
2013-06-17 01:53:00,73.0,70.0,29.95,SSE,149,0.0,-999.0,89,-99.99,,,0.00,,2013-06-17 06:53:00,
2013-06-17 02:02:00,73.0,70.0,29.95,SE,137,0.0,-999.0,89,-99.99,,,0.00,,2013-06-17 07:02:00,
2013-06-17 02:12:00,73.0,70.0,29.94,SSE,147,0.0,-999.0,90,-99.99,,,0.00,,2013-06-17 07:12:00,
2013-06-17 02:22:00,73.0,70.0,29.94,SSE,147,0.0,-999.0,90,-99.99,,,0.00,,2013-06-17 07:22:00,
2013-06-17 02:33:00,73.0,70.0,29.94,SE,135,0.0,-999.0,90,-99.99,,,0.00,,2013-06-17 07:33:00,
2013-06-17 02:43:00,73.0,70.0,29.94,South,173,0.0,-999.0,90,-99.99,,,0.00,,2013-06-17 07:43:00,
2013-06-17 02:53:00,73.0,70.0,29.94,ESE,119,0.0,-999.0,90,-99.99,,,0.00,,2013-06-17 07:53:00,
2013-06-17 03:02:00,73.0,70.0,29.94,ESE,117,0.0,-999.0,90,-99.99,,,0.00,,2013-06-17 08:02:00,
2013-06-17 03:12:00,72.0,69.0,29.94,SE,127,0.0,-999.0,90,-99.99,,,0.00,,2013-06-17 08:12:00,
2013-06-17 03:22:00,72.0,69.0,29.93,SE,129,0.0,-999.0,90,-99.99,,,0.00,,2013-06-17 08:22:00,
2013-06-17 03:34:00,72.0,69.0,29.93,SE,129,0.0,-999.0,90,-99.99,,,0.00,,2013-06-17 08:34:00,
2013-06-17 03:43:00,72.0,69.0,29.93,SE,133,0.0,-999.0,91,-99.99,,,0.00,,2013-06-17 08:43:00,
2013-06-17 03:53:00,72.0,69.0,29.93,SE,141,0.0,-999.0,91,-99.99,,,0.00,,2013-06-17 08:53:00,
2013-06-17 04:02:00,72.0,69.0,29.93,SE,137,0.0,-999.0,91,-99.99,,,0.00,,2013-06-17 09:02:00,
2013-06-17 04:12:00,72.0,70.0,29.93,SSE,167,0.0,-999.0,92,-99.99,,,0.00,,2013-06-17 09:12:00,
2013-06-17 04:22:00,72.0,70.0,29.93,SSE,156,0.0,-999.0,92,-99.99,,,0.00,,2013-06-17 09:22:00,
2013-06-17 04:34:00,72.0,70.0,29.93,SSE,156,0.0,-999.0,92,-99.99,,,0.00,,2013-06-17 09:34:00,
2013-06-17 04:43:00,72.0,70.0,29.92,SSE,156,0.0,-999.0,92,-99.99,,,0.00,,2013-06-17 09:43:00,
2013-06-17 04:52:00,72.0,70.0,29.93,SSE,156,0.0,-999.0,92,-99.99,,,0.00,,2013-06-17 09:52:00,
2013-06-17 05:02:00,72.0,70.0,29.93,SSE,156,0.0,-999.0,92,-99.99,,,0.00,,2013-06-17 10:02:00,
2013-06-17 05:12:00,72.0,70.0,29.92,SE,130,0.0,-999.0,92,-99.99,,,0.00,,2013-06-17 10:12:00,
2013-06-17 05:22:00,72.0,70.0,29.93,SE,135,0.0,-999.0,92,-99.99,,,0.00,,2013-06-17 10:22:00,
2013-06-17 05:33:00,72.0,70.0,29.93,SE,135,0.0,-999.0,93,-99.99,,,0.00,,2013-06-17 10:33:00,
2013-06-17 05:43:00,72.0,70.0,29.93,SE,129,0.0,-999.0,93,-99.99,,,0.00,,2013-06-17 10:43:00,
2013-06-17 05:53:00,72.0,70.0,29.94,SE,129,0.0,-999.0,93,-99.99,,,0.00,,2013-06-17 10:53:00,
2013-06-17 06:02:00,72.0,70.0,29.93,SE,127,0.0,-999.0,93,-99.99,,,0.00,,2013-06-17 11:02:00,
2013-06-17 06:12:00,72.0,70.0,29.93,SE,135,0.0,-999.0,93,-99.99,,,0.00,,2013-06-17 11:12:00,
2013-06-17 06:23:00,72.0,70.0,29.93,SE,129,0.0,-999.0,93,-99.99,,,0.00,,2013-06-17 11:23:00,
2013-06-17 06:33:00,72.0,70.0,29.94,SSE,149,0.0,-999.0,93,-99.99,,,0.00,,2013-06-17 11:33:00,
2013-06-17 06:43:00,72.0,70.0,29.94,SE,146,0.0,-999.0,93,-99.99,,,0.00,,2013-06-17 11:43:00,
2013-06-17 06:53:00,72.0,70.0,29.94,SSE,167,0.0,-999.0,93,-99.99,,,0.00,,2013-06-17 11:53:00,
2013-06-17 07:02:00,72.0,70.0,29.94,SSE,167,0.0,-999.0,93,-99.99,,,0.00,,2013-06-17 12:02:00,
2013-06-17 07:12:00,72.0,70.0,29.93,SSE,167,0.0,-999.0,93,-99.99,,,0.00,,2013-06-17 12:12:00,
2013-06-17 07:23:00,72.0,70.0,29.93,SSE,167,0.0,-999.0,93,-99.99,,,0.00,,2013-06-17 12:23:00,
2013-06-17 07:33:00,72.0,70.0,29.93,SSE,166,0.0,-999.0,93,-99.99,,,0.00,,2013-06-17 12:33:00,
2013-06-17 07:43:00,72.0,70.0,29.93,SSE,167,0.0,-999.0,93,-99.99,,,0.00,,2013-06-17 12:43:00,
2013-06-17 07:53:00,72.0,70.0,29.93,SSE,167,0.0,-999.0,93,-99.99,,,0.00,,2013-06-17 12:53:00,
2013-06-17 08:01:00,73.0,71.0,29.93,SE,133,0.0,-999.0,93,-99.99,,,0.00,,2013-06-17 13:01:00,
2013-06-17 08:12:00,75.0,72.0,29.94,ESE,110,0.0,-999.0,89,-99.99,,,0.00,,2013-06-17 13:12:00,
2013-06-17 08:22:00,75.0,72.0,29.94,ESE,110,0.0,-999.0,89,-99.99,,,0.00,,2013-06-17 13:22:00,
2013-06-17 08:32:00,77.0,72.0,29.94,East,100,0.0,-999.0,85,-99.99,,,0.00,,2013-06-17 13:32:00,
2013-06-17 08:43:00,78.0,73.0,29.94,ESE,110,0.0,-999.0,84,-99.99,,,0.00,,2013-06-17 13:43:00,
2013-06-17 08:52:00,78.0,72.0,29.94,South,174,0.0,-999.0,83,-99.99,,,0.00,,2013-06-17 13:52:00,
2013-06-17 09:02:00,79.0,73.0,29.94,South,174,0.0,-999.0,82,-99.99,,,0.00,,2013-06-17 14:02:00,
2013-06-17 09:12:00,79.0,73.0,29.94,SSE,166,0.0,-999.0,81,-99.99,,,0.00,,2013-06-17 14:12:00,
2013-06-17 09:22:00,80.0,74.0,29.93,SSE,166,0.0,-999.0,81,-99.99,,,0.00,,2013-06-17 14:22:00,
2013-06-17 09:34:00,81.0,74.0,29.93,SE,145,0.0,-999.0,80,-99.99,,,0.00,,2013-06-17 14:34:00,
2013-06-17 09:43:00,81.0,74.0,29.93,SSW,211,0.0,-999.0,80,-99.99,,,0.00,,2013-06-17 14:43:00,
2013-06-17 09:53:00,81.0,74.0,29.93,SSW,211,0.0,-999.0,80,-99.99,,,0.00,,2013-06-17 14:53:00,
2013-06-17 10:02:00,82.0,74.0,29.93,South,190,0.0,-999.0,78,-99.99,,,0.00,,2013-06-17 15:02:00,
2013-06-17 10:12:00,83.0,75.0,29.92,South,181,0.0,-999.0,78,-99.99,,,0.00,,2013-06-17 15:12:00,
2013-06-17 10:22:00,84.0,76.0,29.93,SSE,154,0.0,-999.0,76,-99.99,,,0.00,,2013-06-17 15:22:00,
2013-06-17 10:33:00,84.0,75.0,29.93,SSW,208,0.0,-999.0,74,-99.99,,,0.00,,2013-06-17 15:33:00,
2013-06-17 10:43:00,85.0,75.0,29.93,SE,135,0.0,-999.0,73,-99.99,,,0.00,,2013-06-17 15:43:00,
2013-06-17 10:52:00,85.0,75.0,29.93,SSE,160,0.0,-999.0,72,-99.99,,,0.00,,2013-06-17 15:52:00,
2013-06-17 11:02:00,85.0,75.0,29.93,SW,220,0.0,-999.0,73,-99.99,,,0.00,,2013-06-17 16:02:00,
2013-06-17 11:12:00,86.0,74.0,29.93,SW,221,0.0,-999.0,68,-99.99,,,0.00,,2013-06-17 16:12:00,
2013-06-17 11:22:00,87.0,74.0,29.93,South,169,0.0,-999.0,66,-99.99,,,0.00,,2013-06-17 16:22:00,
2013-06-17 11:33:00,88.0,75.0,29.93,SSW,204,0.0,-999.0,65,-99.99,,,0.00,,2013-06-17 16:33:00,
2013-06-17 11:43:00,88.0,75.0,29.92,South,174,0.0,-999.0,66,-99.99,,,0.00,,2013-06-17 16:43:00,
2013-06-17 11:53:00,88.0,75.0,29.92,South,177,0.0,-999.0,65,-99.99,,,0.00,,2013-06-17 16:53:00,
2013-06-17 12:02:00,88.0,74.0,29.91,WSW,253,0.0,-999.0,64,-99.99,,,0.00,,2013-06-17 17:02:00,
2013-06-17 12:12:00,89.0,73.0,29.91,SSE,166,0.0,-999.0,60,-99.99,,,0.00,,2013-06-17 17:12:00,
2013-06-17 12:22:00,89.0,73.0,29.89,SSW,202,0.0,-999.0,60,-99.99,,,0.00,,2013-06-17 17:22:00,
2013-06-17 12:33:00,89.0,73.0,29.89,South,182,0.0,-999.0,59,-99.99,,,0.00,,2013-06-17 17:33:00,
2013-06-17 12:43:00,90.0,72.0,29.88,West,270,0.0,-999.0,55,-99.99,,,0.00,,2013-06-17 17:43:00,
2013-06-17 12:52:00,90.0,72.0,29.88,West,270,0.0,-999.0,55,-99.99,,,0.00,,2013-06-17 17:52:00,
2013-06-17 13:02:00,90.0,73.0,29.87,North,354,0.0,-999.0,57,-99.99,,,0.00,,2013-06-17 18:02:00,
2013-06-17 13:12:00,89.0,71.0,29.87,NNW,338,0.0,-999.0,55,-99.99,,,0.00,,2013-06-17 18:12:00,
2013-06-17 13:23:00,89.0,71.0,29.87,North,354,0.0,-999.0,55,-99.99,,,0.00,,2013-06-17 18:23:00,
2013-06-17 13:33:00,89.0,71.0,29.87,WSW,256,0.0,-999.0,56,-99.99,,,0.00,,2013-06-17 18:33:00,
2013-06-17 13:43:00,88.0,70.0,29.86,West,265,0.0,-999.0,56,-99.99,,,0.00,,2013-06-17 18:43:00,
2013-06-17 13:53:00,88.0,70.0,29.87,SSW,211,0.0,-999.0,56,-99.99,,,0.00,,2013-06-17 18:53:00,
2013-06-17 14:02:00,87.0,70.0,29.88,SW,220,0.0,-999.0,58,-99.99,,,0.00,,2013-06-17 19:02:00,
2013-06-17 14:11:00,87.0,70.0,29.88,SW,220,0.0,-999.0,58,-99.99,,,0.00,,2013-06-17 19:11:00,
2013-06-17 15:11:00,71.0,69.0,29.90,ESE,117,0.0,-999.0,95,-99.99,,,0.40,,2013-06-17 20:11:00,
2013-06-17 15:22:00,70.0,68.0,29.90,ESE,120,0.0,-999.0,94,-99.99,,,0.40,,2013-06-17 20:22:00,
2013-06-17 15:34:00,71.0,69.0,29.90,ESE,114,0.0,-999.0,95,-99.99,,,0.40,,2013-06-17 20:34:00,
2013-06-17 15:43:00,71.0,69.0,29.90,SE,131,0.0,-999.0,95,-99.99,,,0.41,,2013-06-17 20:43:00,
2013-06-17 15:52:00,71.0,69.0,29.90,SE,131,0.0,-999.0,95,-99.99,,,0.41,,2013-06-17 20:52:00,
2013-06-17 16:01:00,71.0,69.0,29.90,ESE,108,0.0,-999.0,95,-99.99,,,0.41,,2013-06-17 21:01:00,
2013-06-17 16:12:00,73.0,72.0,29.90,ESE,110,0.0,-999.0,96,-99.99,,,0.41,,2013-06-17 21:12:00,
2013-06-17 16:22:00,73.0,71.0,29.91,SSE,159,0.0,-999.0,93,-99.99,,,0.41,,2013-06-17 21:22:00,
2013-06-17 16:33:00,73.0,70.0,29.90,SSE,154,0.0,-999.0,91,-99.99,,,0.41,,2013-06-17 21:33:00,
2013-06-17 16:43:00,74.0,71.0,29.90,SE,141,0.0,-999.0,89,-99.99,,,0.41,,2013-06-17 21:43:00,
2013-06-17 16:52:00,74.0,71.0,29.90,SE,141,0.0,-999.0,89,-99.99,,,0.41,,2013-06-17 21:52:00,
2013-06-17 17:01:00,76.0,71.0,29.89,South,172,0.0,-999.0,84,-99.99,,,0.41,,2013-06-17 22:01:00,
2013-06-17 17:11:00,78.0,72.0,29.89,SE,143,0.0,-999.0,82,-99.99,,,0.41,,2013-06-17 22:11:00,
2013-06-17 17:22:00,78.0,71.0,29.89,ESE,114,0.0,-999.0,79,-99.99,,,0.41,,2013-06-17 22:22:00,
2013-06-17 17:34:00,77.0,71.0,29.88,SSE,166,0.0,-999.0,82,-99.99,,,0.41,,2013-06-17 22:34:00,
2013-06-17 17:43:00,77.0,71.0,29.87,SSE,148,0.0,-999.0,83,-99.99,,,0.41,,2013-06-17 22:43:00,
2013-06-17 17:53:00,77.0,71.0,29.88,SSE,154,0.0,-999.0,83,-99.99,,,0.41,,2013-06-17 22:53:00,
2013-06-17 18:02:00,76.0,70.0,29.88,South,179,0.0,-999.0,83,-99.99,,,0.41,,2013-06-17 23:02:00,
2013-06-17 18:11:00,77.0,72.0,29.88,South,177,0.0,-999.0,86,-99.99,,,0.41,,2013-06-17 23:11:00,
2013-06-17 18:22:00,76.0,72.0,29.88,SE,128,0.0,-999.0,86,-99.99,,,0.41,,2013-06-17 23:22:00,
2013-06-17 18:32:00,76.0,72.0,29.88,SE,128,0.0,-999.0,86,-99.99,,,0.41,,2013-06-17 23:32:00,
2013-06-17 18:42:00,75.0,71.0,29.88,SSE,156,0.0,-999.0,88,-99.99,,,0.41,,2013-06-17 23:42:00,
2013-06-17 18:53:00,75.0,71.0,29.88,SSE,156,0.0,-999.0,88,-99.99,,,0.41,,2013-06-17 23:53:00,
2013-06-17 19:01:00,75.0,72.0,29.87,ESE,117,0.0,-999.0,89,-99.99,,,0.41,,2013-06-18 00:01:00,
2013-06-17 19:12:00,75.0,72.0,29.89,SSE,160,0.0,-999.0,90,-99.99,,,0.00,,2013-06-18 00:12:00,
2013-06-17 19:22:00,75.0,72.0,29.89,SSE,160,0.0,-999.0,90,-99.99,,,0.00,,2013-06-18 00:22:00,
2013-06-17 19:33:00,75.0,73.0,29.89,SSW,207,0.0,-999.0,92,-99.99,,,0.00,,2013-06-18 00:33:00,
2013-06-17 19:43:00,75.0,72.0,29.88,South,171,0.0,-999.0,91,-99.99,,,0.00,,2013-06-18 00:43:00,
2013-06-17 19:52:00,74.0,71.0,29.87,South,170,0.0,-999.0,90,-99.99,,,0.00,,2013-06-18 00:52:00,
2013-06-17 20:01:00,74.0,71.0,29.87,South,170,0.0,-999.0,90,-99.99,,,0.00,,2013-06-18 01:01:00,
2013-06-17 20:12:00,74.0,71.0,29.87,South,185,0.0,-999.0,91,-99.99,,,0.00,,2013-06-18 01:12:00,
2013-06-17 20:23:00,73.0,71.0,29.87,South,176,0.0,-999.0,92,-99.99,,,0.00,,2013-06-18 01:23:00,
2013-06-17 20:34:00,73.0,71.0,29.88,South,182,0.0,-999.0,92,-99.99,,,0.00,,2013-06-18 01:34:00,
2013-06-17 20:44:00,73.0,71.0,29.88,South,182,0.0,-999.0,93,-99.99,,,0.00,,2013-06-18 01:44:00,
2013-06-17 20:53:00,73.0,71.0,29.88,SSE,162,0.0,-999.0,93,-99.99,,,0.00,,2013-06-18 01:53:00,
2013-06-17 21:02:00,73.0,71.0,29.87,SSE,153,0.0,-999.0,92,-99.99,,,0.00,,2013-06-18 02:02:00,
2013-06-17 21:11:00,73.0,71.0,29.87,SSE,153,0.0,-999.0,92,-99.99,,,0.00,,2013-06-18 02:11:00,
2013-06-17 21:22:00,73.0,71.0,29.86,SE,129,0.0,-999.0,93,-99.99,,,0.00,,2013-06-18 02:22:00,
2013-06-17 21:34:00,73.0,71.0,29.86,ESE,120,0.0,-999.0,93,-99.99,,,0.00,,2013-06-18 02:34:00,
2013-06-17 21:43:00,72.0,70.0,29.85,SE,139,0.0,-999.0,93,-99.99,,,0.00,,2013-06-18 02:43:00,
2013-06-17 21:53:00,72.0,70.0,29.85,South,191,0.0,-999.0,93,-99.99,,,0.00,,2013-06-18 02:53:00,
2013-06-17 22:02:00,72.0,70.0,29.85,South,191,0.0,-999.0,93,-99.99,,,0.00,,2013-06-18 03:02:00,
2013-06-17 22:12:00,72.0,70.0,29.87,SSE,152,0.0,-999.0,93,-99.99,,,0.00,,2013-06-18 03:12:00,
2013-06-17 22:23:00,72.0,70.0,29.86,SE,134,0.0,-999.0,93,-99.99,,,0.00,,2013-06-18 03:23:00,
2013-06-17 22:34:00,72.0,70.0,29.86,South,171,0.0,-999.0,94,-99.99,,,0.00,,2013-06-18 03:34:00,
2013-06-17 22:43:00,72.0,70.0,29.87,South,172,0.0,-999.0,94,-99.99,,,0.00,,2013-06-18 03:43:00,
2013-06-17 22:53:00,71.0,69.0,29.86,SSE,163,0.0,-999.0,94,-99.99,,,0.00,,2013-06-18 03:53:00,
2013-06-17 23:02:00,71.0,69.0,29.86,SSE,159,0.0,-999.0,94,-99.99,,,0.00,,2013-06-18 04:02:00,
2013-06-17 23:12:00,71.0,69.0,29.86,South,172,0.0,-999.0,94,-99.99,,,0.00,,2013-06-18 04:12:00,
2013-06-17 23:23:00,71.0,69.0,29.86,SSE,168,0.0,-999.0,94,-99.99,,,0.00,,2013-06-18 04:23:00,
2013-06-17 23:34:00,71.0,69.0,29.86,SSE,168,0.0,-999.0,94,-99.99,,,0.00,,2013-06-18 04:34:00,
2013-06-17 23:43:00,71.0,69.0,29.86,SSE,168,0.0,-999.0,95,-99.99,,,0.00,,2013-06-18 04:43:00,
2013-06-17 23:53:00,71.0,69.0,29.86,SSE,168,0.0,-999.0,95,-99.99,,,0.00,,2013-06-18 04:53:00,